Time,TemperatureF,DewpointF,PressureIn,WindDirection,WindDirectionDegrees,WindSpeedMPH,WindSpeedGustMPH,Humidity,HourlyPrecipIn,Conditions,Clouds,dailyrainin,SolarRadiationWatts/m^2,SoftwareType,DateUTC
2013-09-25 00:03:00,73.0,55.0,-100.00,ESE,111,4.0,8.0,54,0.00,,,-99.99,0.000000,,2013-09-25 05:03:00,
2013-09-25 00:44:00,73.0,61.0,-100.00,NNE,31,4.0,6.0,66,0.00,,,0.00,0.000000,,2013-09-25 05:44:00,
2013-09-25 00:53:00,73.0,61.0,-100.00,NNE,31,4.0,6.0,66,0.00,,,0.00,0.000000,,2013-09-25 05:53:00,
2013-09-25 01:02:00,73.0,61.0,-100.00,NNE,31,4.0,6.0,66,0.00,,,0.00,0.000000,,2013-09-25 06:02:00,
2013-09-25 01:42:00,71.0,59.0,-100.00,ENE,62,7.0,9.0,67,0.00,,,0.00,0.000000,,2013-09-25 06:42:00,
2013-09-25 01:52:00,71.0,59.0,-100.00,ENE,62,7.0,9.0,67,0.00,,,0.00,0.000000,,2013-09-25 06:52:00,
2013-09-25 02:01:00,71.0,59.0,-100.00,ENE,62,7.0,9.0,67,0.00,,,0.00,0.000000,,2013-09-25 07:01:00,
2013-09-25 02:42:00,67.0,57.0,-100.00,South,177,1.0,9.0,70,0.00,,,0.00,0.000000,,2013-09-25 07:42:00,
2013-09-25 02:53:00,67.0,57.0,-100.00,South,177,1.0,9.0,70,0.00,,,0.00,0.000000,,2013-09-25 07:53:00,
2013-09-25 03:02:00,67.0,57.0,-100.00,South,177,1.0,9.0,70,0.00,,,0.00,0.000000,,2013-09-25 08:02:00,
2013-09-25 03:42:00,66.0,59.0,-100.00,SE,125,2.0,4.0,78,0.00,,,0.00,0.000000,,2013-09-25 08:42:00,
2013-09-25 03:53:00,66.0,59.0,-100.00,SE,125,2.0,4.0,78,0.00,,,0.00,0.000000,,2013-09-25 08:53:00,
2013-09-25 04:02:00,66.0,59.0,-100.00,SE,125,2.0,4.0,78,0.00,,,0.00,0.000000,,2013-09-25 09:02:00,
2013-09-25 04:43:00,66.0,58.0,-100.00,SE,145,1.0,4.0,75,0.00,,,0.00,0.000000,,2013-09-25 09:43:00,
2013-09-25 04:54:00,66.0,58.0,-100.00,SE,145,1.0,4.0,75,0.00,,,0.00,0.000000,,2013-09-25 09:54:00,
2013-09-25 05:04:00,66.0,58.0,-100.00,SE,145,1.0,4.0,75,0.00,,,0.00,0.000000,,2013-09-25 10:04:00,
2013-09-25 05:42:00,64.0,60.0,-100.00,SE,130,0.0,5.0,86,0.00,,,0.00,0.000000,,2013-09-25 10:42:00,
2013-09-25 05:53:00,64.0,60.0,-100.00,SE,130,0.0,5.0,86,0.00,,,0.00,0.000000,,2013-09-25 10:53:00,
2013-09-25 06:02:00,64.0,60.0,-100.00,SE,130,0.0,5.0,86,0.00,,,0.00,0.000000,,2013-09-25 11:02:00,
2013-09-25 06:43:00,63.0,59.0,-100.00,SSE,157,0.0,3.0,88,0.00,,,0.00,0.000000,,2013-09-25 11:43:00,
2013-09-25 06:52:00,63.0,59.0,-100.00,SSE,157,0.0,3.0,88,0.00,,,0.00,0.000000,,2013-09-25 11:52:00,
2013-09-25 07:02:00,63.0,59.0,-100.00,SSE,157,0.0,3.0,88,0.00,,,0.00,0.000000,,2013-09-25 12:02:00,
2013-09-25 07:42:00,62.0,59.0,-100.00,SE,141,0.0,2.0,89,0.00,,,0.00,0.000000,,2013-09-25 12:42:00,
2013-09-25 07:52:00,62.0,59.0,-100.00,SE,141,0.0,2.0,89,0.00,,,0.00,0.000000,,2013-09-25 12:52:00,
2013-09-25 08:02:00,62.0,59.0,-100.00,SE,141,0.0,2.0,89,0.00,,,0.00,0.000000,,2013-09-25 13:02:00,
2013-09-25 08:42:00,65.0,61.0,-100.00,SSE,157,0.0,3.0,86,0.00,,,0.00,25.000000,,2013-09-25 13:42:00,
2013-09-25 08:52:00,65.0,61.0,-100.00,SSE,157,0.0,3.0,86,0.00,,,0.00,25.000000,,2013-09-25 13:52:00,
2013-09-25 09:02:00,65.0,61.0,-100.00,SSE,157,0.0,3.0,86,0.00,,,0.00,25.000000,,2013-09-25 14:02:00,
2013-09-25 09:43:00,72.0,64.0,-100.00,SE,127,4.0,6.0,76,0.00,,,0.00,209.000000,,2013-09-25 14:43:00,
2013-09-25 09:52:00,72.0,64.0,-100.00,SE,127,4.0,6.0,76,0.00,,,0.00,209.000000,,2013-09-25 14:52:00,
2013-09-25 10:02:00,72.0,64.0,-100.00,SE,127,4.0,6.0,76,0.00,,,0.00,209.000000,,2013-09-25 15:02:00,
2013-09-25 10:44:00,77.0,62.0,-100.00,SE,143,6.0,8.0,60,0.00,,,-99.99,414.000000,,2013-09-25 15:44:00,
2013-09-25 10:54:00,77.0,62.0,-100.00,SE,143,6.0,8.0,60,0.00,,,-99.99,414.000000,,2013-09-25 15:54:00,
2013-09-25 11:03:00,77.0,62.0,-100.00,SE,143,6.0,8.0,60,0.00,,,-99.99,414.000000,,2013-09-25 16:03:00,
2013-09-25 11:43:00,84.0,64.0,-100.00,SSE,155,6.0,12.0,52,0.00,,,0.00,669.000000,,2013-09-25 16:43:00,
2013-09-25 11:53:00,84.0,64.0,-100.00,SSE,155,6.0,12.0,52,0.00,,,0.00,669.000000,,2013-09-25 16:53:00,
2013-09-25 12:03:00,84.0,64.0,-100.00,SSE,155,6.0,12.0,52,0.00,,,0.00,669.000000,,2013-09-25 17:03:00,
2013-09-25 13:42:00,89.0,60.0,-100.00,SSW,208,8.0,16.0,38,-99.99,,,0.00,915.000000,,2013-09-25 18:42:00,
2013-09-25 13:52:00,89.0,60.0,-100.00,SSW,208,8.0,16.0,38,-99.99,,,0.00,915.000000,,2013-09-25 18:52:00,
2013-09-25 14:02:00,89.0,60.0,-100.00,SSW,208,8.0,16.0,38,-99.99,,,0.00,915.000000,,2013-09-25 19:02:00,
2013-09-25 14:42:00,91.0,58.0,-100.00,SSW,192,12.0,16.0,33,0.00,,,0.00,944.000000,,2013-09-25 19:42:00,
2013-09-25 14:52:00,91.0,58.0,-100.00,SSW,192,12.0,16.0,33,0.00,,,0.00,944.000000,,2013-09-25 19:52:00,
2013-09-25 15:03:00,91.0,58.0,-100.00,SSW,192,12.0,16.0,33,0.00,,,0.00,944.000000,,2013-09-25 20:03:00,
2013-09-25 15:43:00,92.0,59.0,-100.00,SSW,208,8.0,15.0,33,0.00,,,0.00,688.000000,,2013-09-25 20:43:00,
2013-09-25 15:52:00,92.0,59.0,-100.00,SSW,208,8.0,15.0,33,0.00,,,0.00,688.000000,,2013-09-25 20:52:00,
2013-09-25 16:01:00,92.0,59.0,-100.00,SSW,208,8.0,15.0,33,0.00,,,0.00,688.000000,,2013-09-25 21:01:00,
2013-09-25 16:45:00,93.0,59.0,-100.00,South,190,9.0,18.0,32,0.00,,,0.00,751.000000,,2013-09-25 21:45:00,
2013-09-25 16:55:00,93.0,59.0,-100.00,South,190,9.0,18.0,32,0.00,,,0.00,751.000000,,2013-09-25 21:55:00,
2013-09-25 17:04:00,93.0,59.0,-100.00,South,190,9.0,18.0,32,0.00,,,0.00,751.000000,,2013-09-25 22:04:00,
2013-09-25 17:43:00,92.0,56.0,-100.00,South,176,10.0,16.0,30,0.00,,,0.00,610.000000,,2013-09-25 22:43:00,
2013-09-25 17:53:00,92.0,56.0,-100.00,South,176,10.0,16.0,30,0.00,,,0.00,610.000000,,2013-09-25 22:53:00,
2013-09-25 18:03:00,92.0,56.0,-100.00,South,176,10.0,16.0,30,0.00,,,0.00,610.000000,,2013-09-25 23:03:00,
2013-09-25 18:42:00,91.0,55.0,-100.00,South,180,9.0,16.0,30,0.00,,,0.00,369.000000,,2013-09-25 23:42:00,
2013-09-25 18:53:00,91.0,55.0,-100.00,South,180,9.0,16.0,30,0.00,,,0.00,369.000000,,2013-09-25 23:53:00,
2013-09-25 19:02:00,91.0,55.0,-100.00,South,180,9.0,16.0,30,0.00,,,0.00,369.000000,,2013-09-26 00:02:00,
2013-09-25 19:42:00,87.0,55.0,-100.00,SSE,161,5.0,13.0,34,0.00,,,0.00,141.000000,,2013-09-26 00:42:00,
2013-09-25 19:52:00,87.0,55.0,-100.00,SSE,161,5.0,13.0,34,0.00,,,0.00,141.000000,,2013-09-26 00:52:00,
2013-09-25 20:02:00,87.0,55.0,-100.00,SSE,161,5.0,13.0,34,0.00,,,0.00,141.000000,,2013-09-26 01:02:00,
2013-09-25 20:42:00,81.0,58.0,-100.00,SE,144,0.0,7.0,46,0.00,,,0.00,9.000000,,2013-09-26 01:42:00,
2013-09-25 20:52:00,81.0,58.0,-100.00,SE,144,0.0,7.0,46,0.00,,,0.00,9.000000,,2013-09-26 01:52:00,
2013-09-25 21:02:00,81.0,58.0,-100.00,SE,144,0.0,7.0,46,0.00,,,0.00,9.000000,,2013-09-26 02:02:00,
2013-09-25 21:52:00,78.0,58.0,-100.00,SE,142,5.0,7.0,51,0.00,,,0.00,0.000000,,2013-09-26 02:52:00,
2013-09-25 22:02:00,78.0,58.0,-100.00,SE,142,5.0,7.0,51,0.00,,,0.00,0.000000,,2013-09-26 03:02:00,
2013-09-25 22:44:00,76.0,60.0,-100.00,SE,133,3.0,7.0,57,0.00,,,0.00,0.000000,,2013-09-26 03:44:00,
2013-09-25 22:55:00,76.0,60.0,-100.00,SE,133,3.0,7.0,57,0.00,,,0.00,0.000000,,2013-09-26 03:55:00,
2013-09-25 23:04:00,76.0,60.0,-100.00,SE,133,3.0,7.0,57,0.00,,,0.00,0.000000,,2013-09-26 04:04:00,
2013-09-25 23:44:00,73.0,58.0,-100.00,SSE,148,2.0,6.0,60,0.00,,,0.00,0.000000,,2013-09-26 04:44:00,
2013-09-25 23:54:00,73.0,58.0,-100.00,SSE,148,2.0,6.0,60,0.00,,,0.00,0.000000,,2013-09-26 04:54:00,